NAVSTAR 22 (USA 66) 1 20959U 90103A 10210.43109086 -.00000011 00000-0 10000-3 0 7910 2 20959 054.9087 266.5813 0128669 304.6920 054.1933 02.00561614144073 NAVSTAR 23 (USA 71) 1 21552U 91047A 10211.26753010 .00000058 00000-0 10000-3 0 7675 2 21552 054.3733 204.5851 0058439 332.3833 027.2897 02.00428336139670 NAVSTAR 26 (USA 83) 1 22014U 92039A 10210.23430678 -.00000088 +00000-0 +10000-3 0 06863 2 22014 056.7271 325.5277 0191395 063.2470 298.7159 02.00715319125805 NAVSTAR 27 (USA 84) 1 22108U 92058A 10210.83153630 -.00000074 00000-0 10000-3 0 5790 2 22108 056.0831 018.6708 0217368 280.0934 077.4762 02.00571729130999 NAVSTAR 33 (USA 92) 1 22700U 93042A 10210.85432787 -.00000072 00000-0 10000-3 0 9249 2 22700 056.2184 020.1112 0168985 088.3100 273.6466 02.00559957125153 NAVSTAR 35 (USA 96) 1 22877U 93068A 10210.99241339 .00000053 00000-0 10000-3 0 2632 2 22877 053.7977 201.7323 0098747 029.3398 331.1602 02.00557653122805 NAVSTAR 36 (USA 100) 1 23027U 94016A 10210.69770419 .00000014 00000-0 10000-3 0 2443 2 23027 053.5507 138.7180 0064498 301.3689 057.9989 02.00564969120102 NAVSTAR 37 (USA 117) 1 23833U 96019A 10210.71540198 .00000010 00000-0 10000-3 0 4320 2 23833 053.1408 134.6497 0132181 057.8229 303.4555 02.00557685105082 NAVSTAR 38 (USA 126) 1 23953U 96041A 10211.09467355 -.00000004 00000-0 10000-3 0 9265 2 23953 054.5793 262.9108 0090699 037.8436 322.8683 02.00580320102880 NAVSTAR 39 (USA 128) 1 24320U 96056A 10210.98954055 -.00000026 00000-0 10000-3 0 6491 2 24320 054.8206 079.1285 0122292 085.9448 275.5344 02.00558899101543 NAVSTAR 43 (USA 132) 1 24876U 97035A 10210.08362240 -.00000089 +00000-0 +10000-3 0 04043 2 24876 056.8600 325.7484 0042568 102.3290 258.1710 02.00557151095395 NAVSTAR 44 (USA 134) 1 25030U 97067A 10210.71648454 -.00000066 00000-0 10000-3 0 3263 2 25030 056.9295 025.8427 0112653 179.7004 180.3346 02.00563535 93301 NAVSTAR 46 (USA 145) 1 25933U 99055A 10210.36195977 +.00000038 +00000-0 +10000-3 0 08502 2 25933 050.8999 188.0385 0106811 046.3502 314.5009 02.00553255079212 NAVSTAR 47 (USA 150) 1 26360U 00025A 10210.45451327 -.00000002 00000-0 10000-3 0 9457 2 26360 053.6558 259.7874 0039008 074.7190 285.7908 02.00575652 74913 NAVSTAR 48 (USA 151) 1 26407U 00040A 10210.29433954 -.00000020 +00000-0 +10000-3 0 08914 2 26407 055.6325 083.7196 0162512 248.7045 109.6294 02.00563375073583 NAVSTAR 49 (USA 154) 1 26605U 00071A 10210.40026168 -.00000088 +00000-0 +10000-3 0 09001 2 26605 056.4760 324.4660 0054671 238.6301 120.8604 02.00554017071182 NAVSTAR 50 (USA 156) 1 26690U 01004A 10210.26187362 -.00000008 +00000-0 +10000-3 0 07842 2 26690 053.6611 262.8881 0118334 228.0769 130.9874 02.00559277069594 NAVSTAR 51 (USA 166) 1 27663U 03005A 10210.62050446 -.00000021 00000-0 10000-3 0 1836 2 27663 055.7354 083.2716 0059711 348.1199 011.8178 02.00548592 54954 NAVSTAR 52 (USA 168) 1 27704U 03010A 10211.18074325 .00000055 00000-0 10000-3 0 747 2 27704 053.4244 202.3184 0169935 219.7559 138.9893 02.00564947 53753 NAVSTAR 53 (USA 175) 1 28129U 03058A 10210.30541088 -.00000008 +00000-0 +10000-3 0 06711 2 28129 053.5302 263.1582 0056619 249.3547 110.1181 02.00558093048445 NAVSTAR 54 (USA 177) 1 28190U 04009A 10210.75773940 .00000022 00000-0 10000-3 0 6343 2 28190 054.8883 146.1702 0066093 351.2646 008.6083 02.00553298 46627 NAVSTAR 55 (USA 178) 1 28361U 04023A 10210.54547570 -.00000087 00000-0 10000-3 0 4580 2 28361 055.4266 322.1636 0069464 176.8725 183.2060 02.00564442 44700 NAVSTAR 56 (USA 180) 1 28474U 04045A 10211.03740416 .00000054 00000-0 10000-3 0 3344 2 28474 053.8458 200.7111 0095364 179.6360 180.3581 02.00570877 42076 NAVSTAR 57 (USA 183) 1 28874U 05038A 10210.88826720 .00000020 00000-0 10000-3 0 5992 2 28874 055.0298 143.0171 0056388 218.9120 140.6736 02.00568268 35495 NAVSTAR 58 (USA 190) 1 29486U 06042A 10210.99988090 -.00000070 00000-0 10000-3 0 9281 2 29486 056.0110 021.8593 0075135 299.3668 059.8997 02.00558208 28193 NAVSTAR 59 (USA 192) 1 29601U 06052A 10210.94843786 -.00000022 00000-0 10000-3 0 9667 2 29601 055.6616 082.2553 0035370 336.4623 023.4550 02.00565804 27108 NAVSTAR 60 (USA 196) 1 32260U 07047A 10211.25222294 -.00000085 00000-0 00000+0 0 7018 2 32260 054.6180 320.6475 0023183 354.9287 005.0763 02.00550978 20505 NAVSTAR 61 (USA 199) 1 32384U 07062A 10211.07579532 .00000022 00000-0 10000-3 0 7208 2 32384 055.0450 143.4868 0032050 285.6971 073.9503 02.00559306 19224 NAVSTAR 62 (USA 201) 1 32711U 08012A 10211.17035980 -.00000070 00000-0 10000-3 0 5722 2 32711 055.7047 021.8625 0037592 177.8344 182.2056 02.00560239 17434 NAVSTAR 63 (USA 203) 1 34661U 09014A 10211.59470524 -.00000025 00000-0 10000-3 0 5005 2 34661 055.3188 081.3860 0042461 051.3671 309.0858 02.00571769 9951 NAVSTAR 64 (USA 206) 1 35752U 09043A 10210.13967648 -.00000003 00000-0 10000-3 0 2357 2 35752 054.8666 261.4969 0017163 019.2219 340.9218 02.00555640 6996